AFR594 LFPG-GQNO

Flight info

Callsign AFR594
Flight time N/A
Altitude 39000
Route DEPOM UN857 LMG UN10 SAU UN857 PPN UN10 VASUM UN857 BAN UN10 CJN UL27 BLN UN869 MGA UM985 PIMOS UN869 SLK UB11 MABAP UN869 ADM UA600 LAY UB601 KETAS
Aircraft A359/H-DGVW/C

Departure

Time N/A
Airport Charles de Gaulle International Airport (LFPG)

Arrival

Time 2026-04-14 09:21
Airport Nouakchott–Oumtounsy International Airport (GQNO)
Time Latitude Longitude Altitude Speed Heading
2026-04-14 07:01 33.63288 -7.00361 39255 ft 511 kts 220°
2026-04-14 07:01 33.60336 -7.02742 39262 ft 512 kts 220°
2026-04-14 07:02 33.54421 -7.07511 39261 ft 512 kts 220°
2026-04-14 07:02 33.48516 -7.12265 39262 ft 512 kts 220°
2026-04-14 07:03 33.42605 -7.17015 39259 ft 511 kts 220°
2026-04-14 07:03 33.36699 -7.21753 39255 ft 511 kts 220°
2026-04-14 07:04 33.30785 -7.26494 39252 ft 512 kts 220°
2026-04-14 07:04 33.24868 -7.31224 39249 ft 512 kts 220°
2026-04-14 07:05 33.18943 -7.35952 39249 ft 512 kts 220°
2026-04-14 07:05 33.13012 -7.40677 39246 ft 512 kts 220°
2026-04-14 07:06 33.07090 -7.45388 39244 ft 512 kts 220°
2026-04-14 07:06 33.01160 -7.50098 39238 ft 512 kts 220°
2026-04-14 07:07 32.95225 -7.54804 39238 ft 512 kts 220°
2026-04-14 07:07 32.89336 -7.59466 39229 ft 512 kts 219°
2026-04-14 07:08 32.83411 -7.64151 39225 ft 511 kts 219°
2026-04-14 07:08 32.77485 -7.68826 39225 ft 512 kts 219°
2026-04-14 07:09 32.71551 -7.73501 39224 ft 512 kts 219°
2026-04-14 07:09 32.65619 -7.78166 39219 ft 512 kts 219°
2026-04-14 07:10 32.59687 -7.82824 39227 ft 510 kts 219°
2026-04-14 07:10 32.53765 -7.87465 39218 ft 510 kts 219°
2026-04-14 07:11 32.47852 -7.92094 39206 ft 510 kts 219°
2026-04-14 07:11 32.41931 -7.96722 39199 ft 510 kts 219°
2026-04-14 07:12 32.36016 -8.01338 39197 ft 510 kts 219°
2026-04-14 07:12 32.30139 -8.05916 39199 ft 508 kts 219°
2026-04-14 07:13 32.24234 -8.10508 39201 ft 508 kts 219°
2026-04-14 07:13 32.18326 -8.15095 39198 ft 508 kts 219°
2026-04-14 07:14 32.12499 -8.19794 39194 ft 503 kts 225°
2026-04-14 07:14 32.07246 -8.25194 39186 ft 500 kts 228°
2026-04-14 07:15 32.02119 -8.30731 39194 ft 500 kts 229°
2026-04-14 07:15 31.97013 -8.36276 39171 ft 500 kts 229°
2026-04-14 07:16 31.91880 -8.41819 39187 ft 500 kts 228°
2026-04-14 07:16 31.86738 -8.47344 39190 ft 500 kts 228°
2026-04-14 07:17 31.81591 -8.52862 39186 ft 501 kts 228°
2026-04-14 07:17 31.76443 -8.58371 39186 ft 501 kts 228°
2026-04-14 07:18 31.71288 -8.63882 39188 ft 501 kts 228°
2026-04-14 07:18 31.66162 -8.69352 39191 ft 501 kts 228°
2026-04-14 07:19 31.60968 -8.74887 39183 ft 501 kts 228°
2026-04-14 07:19 31.55834 -8.80349 39199 ft 502 kts 228°
2026-04-14 07:20 31.50664 -8.85840 39195 ft 502 kts 228°
2026-04-14 07:20 31.45487 -8.91330 39188 ft 502 kts 228°
2026-04-14 07:21 31.40311 -8.96811 39182 ft 502 kts 228°
2026-04-14 07:21 31.35130 -9.02290 39165 ft 502 kts 228°
2026-04-14 07:22 31.29940 -9.07768 39162 ft 502 kts 228°
2026-04-14 07:22 31.24749 -9.13242 39147 ft 503 kts 227°
2026-04-14 07:23 31.19541 -9.18722 39148 ft 504 kts 227°
2026-04-14 07:23 31.14335 -9.24191 39112 ft 502 kts 227°
2026-04-14 07:24 31.09151 -9.29628 39109 ft 501 kts 227°
2026-04-14 07:24 31.03998 -9.35026 39085 ft 501 kts 227°
2026-04-14 07:25 30.98809 -9.40454 39080 ft 501 kts 227°
2026-04-14 07:25 30.93618 -9.45875 39061 ft 501 kts 227°
2026-04-14 07:26 30.88417 -9.51300 39055 ft 503 kts 227°
2026-04-14 07:26 30.83199 -9.56732 39051 ft 504 kts 227°
2026-04-14 07:27 30.77983 -9.62155 39049 ft 503 kts 227°
2026-04-14 07:27 30.72749 -9.67588 39050 ft 503 kts 227°
2026-04-14 07:28 30.67525 -9.73003 39055 ft 504 kts 227°
2026-04-14 07:28 30.62292 -9.78418 39055 ft 503 kts 227°
2026-04-14 07:29 30.57061 -9.83822 39048 ft 503 kts 227°
2026-04-14 07:29 30.51824 -9.89228 39070 ft 504 kts 227°
2026-04-14 07:30 30.46580 -9.94630 39068 ft 504 kts 227°
2026-04-14 07:30 30.41334 -10.00025 39081 ft 504 kts 227°
2026-04-14 07:31 30.36117 -10.05384 39081 ft 504 kts 227°
2026-04-14 07:31 30.30864 -10.10771 39087 ft 504 kts 227°
2026-04-14 07:32 30.25612 -10.16155 39098 ft 504 kts 226°
2026-04-14 07:32 30.20358 -10.21526 39072 ft 504 kts 226°
2026-04-14 07:33 30.15095 -10.26899 39092 ft 505 kts 226°
2026-04-14 07:33 30.09825 -10.32270 39099 ft 505 kts 226°
2026-04-14 07:34 29.99287 -10.42988 39104 ft 505 kts 226°
2026-04-14 07:35 29.94050 -10.48304 39110 ft 505 kts 226°
2026-04-14 07:35 29.88780 -10.53646 39096 ft 505 kts 226°
2026-04-14 07:36 29.83506 -10.58984 39097 ft 505 kts 226°
2026-04-14 07:36 29.78229 -10.64318 39109 ft 504 kts 226°
2026-04-14 07:37 29.72953 -10.69641 39109 ft 504 kts 226°
2026-04-14 07:37 29.67677 -10.74957 39116 ft 504 kts 225°
2026-04-14 07:38 29.62396 -10.80269 39116 ft 505 kts 226°
2026-04-14 07:38 29.58009 -10.84678 39114 ft 505 kts 226°
2026-04-14 07:39 29.52717 -10.89989 39127 ft 505 kts 226°
2026-04-14 07:39 29.47429 -10.95289 39105 ft 505 kts 225°
2026-04-14 07:40 29.42138 -11.00584 39125 ft 505 kts 225°
2026-04-14 07:40 29.36841 -11.05875 39129 ft 505 kts 225°
2026-04-14 07:41 29.31543 -11.11161 39129 ft 505 kts 225°
2026-04-14 07:41 29.26240 -11.16445 39137 ft 505 kts 225°
2026-04-14 07:42 29.20929 -11.21728 39142 ft 505 kts 225°
2026-04-14 07:42 29.15618 -11.27005 39137 ft 505 kts 225°
2026-04-14 07:43 29.10346 -11.32236 39126 ft 505 kts 225°
2026-04-14 07:43 29.05032 -11.37501 39137 ft 505 kts 225°
2026-04-14 07:44 28.99719 -11.42757 39141 ft 505 kts 225°
2026-04-14 07:44 28.94396 -11.48015 39132 ft 506 kts 225°
2026-04-14 07:45 28.89076 -11.53263 39132 ft 506 kts 225°
2026-04-14 07:45 28.83748 -11.58511 39118 ft 506 kts 225°
2026-04-14 07:46 28.78421 -11.63751 39124 ft 506 kts 225°
2026-04-14 07:46 28.73089 -11.68989 39103 ft 506 kts 224°
2026-04-14 07:47 28.67763 -11.74215 39116 ft 506 kts 224°
2026-04-14 07:47 28.62435 -11.79435 39128 ft 505 kts 224°
2026-04-14 07:48 28.57102 -11.84651 39122 ft 506 kts 224°
2026-04-14 07:48 28.51798 -11.89832 39131 ft 505 kts 224°
2026-04-14 07:49 28.46463 -11.95036 39125 ft 505 kts 224°
2026-04-14 07:49 28.41131 -12.00231 39119 ft 505 kts 224°
2026-04-14 07:50 28.35805 -12.05413 39121 ft 503 kts 224°
2026-04-14 07:50 28.30487 -12.10580 39132 ft 502 kts 224°
2026-04-14 07:51 28.25180 -12.15728 39132 ft 502 kts 224°
2026-04-14 07:51 28.19875 -12.20868 39140 ft 502 kts 224°
2026-04-14 07:52 28.14563 -12.26008 39137 ft 502 kts 224°
2026-04-14 07:52 28.09251 -12.31141 39128 ft 501 kts 223°
2026-04-14 07:53 28.03965 -12.36239 39144 ft 498 kts 224°
2026-04-14 07:53 27.98732 -12.41282 39123 ft 497 kts 223°
2026-04-14 07:54 27.93468 -12.46349 39139 ft 496 kts 223°
2026-04-14 07:54 27.88217 -12.51395 39142 ft 495 kts 224°
2026-04-14 07:55 27.82969 -12.56432 39142 ft 495 kts 223°
2026-04-14 07:55 27.77717 -12.61467 39137 ft 494 kts 224°
2026-04-14 07:56 27.72517 -12.66442 39148 ft 487 kts 223°
2026-04-14 07:56 27.67357 -12.71377 39145 ft 485 kts 223°
2026-04-14 07:57 27.62204 -12.76300 39146 ft 485 kts 224°
2026-04-14 07:57 27.57056 -12.81212 39148 ft 484 kts 223°
2026-04-14 07:58 27.51917 -12.86107 39149 ft 484 kts 223°
2026-04-14 07:58 27.46782 -12.90992 39148 ft 484 kts 223°
2026-04-14 07:59 27.41656 -12.95861 39153 ft 480 kts 223°
2026-04-14 07:59 27.36599 -13.00657 39153 ft 477 kts 223°
2026-04-14 08:00 27.31525 -13.05466 39153 ft 477 kts 223°
2026-04-14 08:00 27.26444 -13.10276 39159 ft 477 kts 223°
2026-04-14 08:01 27.21361 -13.15082 39157 ft 477 kts 223°
2026-04-14 08:01 27.16265 -13.19866 39160 ft 478 kts 221°
2026-04-14 08:01 27.13401 -13.21792 39159 ft 484 kts 207°
2026-04-14 08:02 27.10238 -13.23133 39160 ft 486 kts 202°
2026-04-14 08:02 27.03747 -13.25345 39160 ft 489 kts 199°
2026-04-14 08:03 26.97186 -13.27378 39158 ft 489 kts 198°
2026-04-14 08:03 26.90635 -13.29435 39150 ft 489 kts 199°
2026-04-14 08:04 26.84095 -13.31530 39146 ft 489 kts 199°
2026-04-14 08:04 26.77577 -13.33632 39148 ft 486 kts 199°
2026-04-14 08:05 26.71137 -13.35709 39147 ft 485 kts 199°
2026-04-14 08:05 26.64657 -13.37796 39145 ft 485 kts 199°
2026-04-14 08:06 26.58175 -13.39879 39144 ft 485 kts 199°
2026-04-14 08:06 26.51690 -13.41960 39129 ft 484 kts 200°
2026-04-14 08:07 26.45225 -13.44035 39139 ft 483 kts 200°
2026-04-14 08:07 26.38767 -13.46102 39137 ft 482 kts 200°
2026-04-14 08:08 26.32320 -13.48163 39134 ft 482 kts 200°
2026-04-14 08:08 26.25865 -13.50227 39127 ft 483 kts 200°
2026-04-14 08:09 26.19444 -13.52278 39132 ft 484 kts 200°
2026-04-14 08:09 26.12969 -13.54341 39133 ft 484 kts 200°
2026-04-14 08:10 26.06490 -13.56401 39129 ft 484 kts 200°
2026-04-14 08:10 26.00013 -13.58459 39129 ft 484 kts 200°
2026-04-14 08:11 25.93543 -13.60514 39127 ft 484 kts 200°
2026-04-14 08:11 25.87066 -13.62566 39125 ft 483 kts 201°
2026-04-14 08:12 25.80619 -13.64609 39125 ft 481 kts 201°
2026-04-14 08:12 25.74178 -13.66650 39123 ft 481 kts 201°
2026-04-14 08:13 25.67738 -13.68687 39123 ft 481 kts 201°
2026-04-14 08:13 25.61298 -13.70721 39120 ft 481 kts 201°
2026-04-14 08:14 25.54863 -13.72751 39127 ft 479 kts 201°
2026-04-14 08:14 25.48516 -13.74753 39114 ft 477 kts 201°
2026-04-14 08:15 25.42125 -13.76765 39109 ft 477 kts 201°
2026-04-14 08:15 25.35735 -13.78772 39116 ft 477 kts 201°
2026-04-14 08:16 25.29347 -13.80778 39099 ft 477 kts 201°
2026-04-14 08:16 25.22986 -13.82769 39110 ft 473 kts 202°
2026-04-14 08:17 25.16669 -13.84748 39112 ft 471 kts 202°
2026-04-14 08:17 25.10363 -13.86726 39101 ft 472 kts 201°
2026-04-14 08:18 25.04037 -13.88706 39104 ft 472 kts 201°
2026-04-14 08:18 24.97710 -13.90682 39077 ft 472 kts 202°
2026-04-14 08:19 24.91416 -13.92642 39105 ft 468 kts 202°
2026-04-14 08:19 24.85205 -13.94577 39105 ft 466 kts 202°
2026-04-14 08:20 24.78963 -13.96523 39104 ft 466 kts 202°
2026-04-14 08:20 24.72713 -13.98469 39103 ft 466 kts 202°
2026-04-14 08:21 24.66463 -14.00411 39085 ft 467 kts 202°
2026-04-14 08:21 24.60235 -14.02341 39102 ft 463 kts 204°
2026-04-14 08:22 24.54046 -14.04259 39102 ft 462 kts 204°
2026-04-14 08:22 24.47867 -14.06175 39099 ft 462 kts 204°
2026-04-14 08:23 24.41682 -14.08091 39097 ft 462 kts 204°
2026-04-14 08:23 24.35506 -14.10001 39099 ft 462 kts 204°
2026-04-14 08:24 24.29334 -14.11899 39093 ft 457 kts 205°
2026-04-14 08:24 24.23229 -14.13781 39091 ft 455 kts 205°
2026-04-14 08:25 24.17139 -14.15663 39092 ft 455 kts 205°
2026-04-14 08:25 24.11048 -14.17542 39095 ft 455 kts 205°
2026-04-14 08:26 24.04998 -14.19404 39091 ft 455 kts 205°
2026-04-14 08:26 23.98900 -14.21278 39088 ft 455 kts 205°
2026-04-14 08:27 23.92809 -14.23148 39087 ft 455 kts 204°
2026-04-14 08:27 23.86703 -14.25021 39086 ft 455 kts 204°
2026-04-14 08:28 23.80605 -14.26889 39083 ft 455 kts 204°
2026-04-14 08:28 23.74499 -14.28757 39084 ft 456 kts 204°
2026-04-14 08:29 23.68403 -14.30619 39070 ft 453 kts 205°
2026-04-14 08:29 23.62377 -14.32453 39082 ft 448 kts 205°
2026-04-14 08:30 23.56387 -14.34284 39077 ft 447 kts 206°
2026-04-14 08:30 23.50406 -14.36112 39075 ft 447 kts 206°
2026-04-14 08:31 23.44419 -14.37938 39089 ft 447 kts 206°
2026-04-14 08:31 23.35446 -14.40666 39078 ft 445 kts 206°
2026-04-14 08:32 23.29501 -14.42470 39075 ft 443 kts 206°
2026-04-14 08:32 23.24572 -14.43969 39075 ft 443 kts 206°
2026-04-14 08:33 23.17631 -14.46078 39073 ft 443 kts 206°
2026-04-14 08:33 23.11700 -14.47876 39073 ft 443 kts 206°
2026-04-14 08:34 23.06771 -14.49368 39044 ft 443 kts 206°
2026-04-14 08:34 23.00843 -14.51161 39075 ft 441 kts 206°
2026-04-14 08:35 22.94928 -14.52948 39069 ft 441 kts 206°
2026-04-14 08:35 22.89019 -14.54734 39066 ft 441 kts 206°
2026-04-14 08:36 22.83108 -14.56518 39066 ft 441 kts 206°
2026-04-14 08:36 22.77198 -14.58301 39063 ft 441 kts 206°
2026-04-14 08:37 22.71298 -14.60076 39061 ft 439 kts 206°
2026-04-14 08:37 22.65417 -14.61844 39059 ft 438 kts 206°
2026-04-14 08:38 22.59595 -14.63595 39059 ft 437 kts 206°
2026-04-14 08:38 22.53728 -14.65359 39062 ft 437 kts 206°
2026-04-14 08:39 22.47864 -14.67120 39059 ft 437 kts 206°
2026-04-14 08:39 22.42002 -14.68878 39028 ft 437 kts 206°
2026-04-14 08:40 22.36157 -14.70625 39053 ft 434 kts 206°
2026-04-14 08:40 22.30340 -14.72366 39052 ft 433 kts 206°
2026-04-14 08:41 22.24531 -14.74106 39049 ft 433 kts 206°
2026-04-14 08:41 22.18720 -14.75844 39051 ft 433 kts 206°
2026-04-14 08:42 22.12949 -14.77568 39048 ft 433 kts 206°
2026-04-14 08:42 22.07136 -14.79301 39043 ft 433 kts 207°
2026-04-14 08:43 22.01339 -14.81028 39040 ft 432 kts 207°
2026-04-14 08:43 21.95543 -14.82755 39042 ft 432 kts 207°
2026-04-14 08:44 21.89750 -14.84479 39039 ft 432 kts 207°
2026-04-14 08:44 21.83957 -14.86202 39039 ft 432 kts 207°
2026-04-14 08:45 21.78153 -14.87926 39042 ft 432 kts 207°
2026-04-14 08:45 21.72352 -14.89649 39034 ft 433 kts 207°
2026-04-14 08:46 21.66553 -14.91369 39034 ft 433 kts 206°
2026-04-14 08:46 21.60746 -14.93089 39034 ft 433 kts 206°
2026-04-14 08:47 21.54945 -14.94806 39029 ft 433 kts 206°
2026-04-14 08:47 21.49137 -14.96524 39029 ft 432 kts 206°
2026-04-14 08:48 21.43338 -14.98238 39014 ft 432 kts 206°
2026-04-14 08:48 21.37531 -14.99954 39031 ft 433 kts 206°
2026-04-14 08:49 21.31731 -15.01666 39032 ft 433 kts 206°
2026-04-14 08:49 21.25959 -15.03367 39032 ft 433 kts 206°
2026-04-14 08:50 21.20158 -15.05076 39033 ft 433 kts 206°
2026-04-14 08:50 21.14350 -15.06786 39032 ft 433 kts 206°
2026-04-14 08:51 21.08552 -15.08491 39016 ft 432 kts 206°
2026-04-14 08:51 21.02767 -15.10189 39021 ft 430 kts 206°
2026-04-14 08:52 20.96992 -15.11885 39022 ft 430 kts 206°
2026-04-14 08:52 20.91225 -15.13579 39036 ft 430 kts 206°
2026-04-14 08:53 20.85448 -15.15274 39023 ft 430 kts 206°
2026-04-14 08:53 20.79676 -15.16965 39032 ft 430 kts 206°
2026-04-14 08:54 20.73904 -15.18654 39032 ft 430 kts 206°
2026-04-14 08:54 20.68171 -15.20331 39010 ft 430 kts 206°
2026-04-14 08:55 20.62341 -15.21897 39024 ft 435 kts 204°
2026-04-14 08:55 20.56395 -15.23419 38947 ft 442 kts 204°
2026-04-14 08:56 20.53401 -15.24189 38608 ft 442 kts 204°
2026-04-14 08:56 20.50408 -15.24963 38084 ft 443 kts 204°
2026-04-14 08:56 20.47409 -15.25742 37557 ft 445 kts 205°
2026-04-14 08:56 20.44393 -15.26528 37024 ft 447 kts 204°
2026-04-14 08:57 20.41368 -15.27315 36525 ft 448 kts 204°
2026-04-14 08:57 20.38330 -15.28106 36040 ft 451 kts 205°
2026-04-14 08:57 20.35280 -15.28900 35566 ft 453 kts 205°
2026-04-14 08:57 20.32205 -15.29701 35093 ft 456 kts 205°
2026-04-14 08:58 20.29112 -15.30505 34629 ft 459 kts 205°
2026-04-14 08:58 20.25997 -15.31316 34163 ft 462 kts 205°
2026-04-14 08:58 20.22856 -15.32132 33688 ft 466 kts 204°
2026-04-14 08:58 20.19693 -15.32957 33162 ft 470 kts 204°
2026-04-14 08:59 20.16500 -15.33789 32657 ft 475 kts 203°
2026-04-14 08:59 20.13275 -15.34628 32161 ft 480 kts 203°
2026-04-14 08:59 20.10007 -15.35477 31655 ft 486 kts 202°
2026-04-14 08:59 20.06701 -15.36335 31178 ft 492 kts 201°
2026-04-14 09:00 20.03356 -15.37201 30709 ft 497 kts 201°
2026-04-14 09:00 20.00024 -15.38063 30251 ft 501 kts 200°
2026-04-14 09:00 19.96587 -15.38951 29725 ft 502 kts 200°
2026-04-14 09:00 19.93247 -15.39811 29194 ft 500 kts 200°
2026-04-14 09:01 19.89880 -15.40678 28669 ft 496 kts 200°
2026-04-14 09:01 19.86538 -15.41539 28152 ft 492 kts 199°
2026-04-14 09:01 19.83228 -15.42393 27646 ft 488 kts 199°
2026-04-14 09:01 19.79939 -15.43242 27149 ft 485 kts 199°
2026-04-14 09:02 19.76673 -15.44084 26636 ft 481 kts 199°
2026-04-14 09:02 19.73436 -15.44919 26145 ft 477 kts 199°
2026-04-14 09:02 19.70214 -15.45751 25684 ft 474 kts 199°
2026-04-14 09:02 19.67017 -15.46576 25213 ft 471 kts 199°
2026-04-14 09:03 19.63838 -15.47395 24751 ft 468 kts 199°
2026-04-14 09:03 19.60685 -15.48208 24300 ft 466 kts 198°
2026-04-14 09:03 19.57546 -15.49017 23845 ft 463 kts 198°
2026-04-14 09:03 19.54418 -15.49822 23401 ft 461 kts 198°
2026-04-14 09:04 19.51319 -15.50620 22856 ft 458 kts 198°
2026-04-14 09:04 19.48229 -15.51414 22349 ft 455 kts 198°
2026-04-14 09:04 19.45158 -15.52204 21828 ft 453 kts 198°
2026-04-14 09:04 19.42100 -15.52989 21332 ft 450 kts 198°
2026-04-14 09:05 19.39069 -15.53768 20844 ft 447 kts 198°
2026-04-14 09:05 19.36057 -15.54541 20366 ft 445 kts 198°
2026-04-14 09:05 19.33096 -15.55302 19896 ft 442 kts 198°
2026-04-14 09:05 19.30072 -15.56078 19417 ft 440 kts 198°
2026-04-14 09:06 19.27139 -15.56831 18964 ft 439 kts 198°
2026-04-14 09:06 19.24184 -15.57589 18515 ft 437 kts 198°
2026-04-14 09:06 19.21238 -15.58344 18036 ft 434 kts 198°
2026-04-14 09:06 19.18306 -15.59097 17526 ft 432 kts 198°
2026-04-14 09:07 19.15394 -15.59844 17023 ft 430 kts 198°
2026-04-14 09:07 19.12498 -15.60587 16533 ft 428 kts 197°
2026-04-14 09:07 19.09606 -15.61327 16019 ft 426 kts 197°
2026-04-14 09:07 19.06732 -15.62063 15556 ft 424 kts 197°
2026-04-14 09:08 19.03874 -15.62795 15077 ft 422 kts 196°
2026-04-14 09:08 19.01031 -15.63523 14605 ft 420 kts 196°
2026-04-14 09:08 18.98194 -15.64247 14153 ft 419 kts 196°
2026-04-14 09:08 18.95367 -15.64968 13647 ft 417 kts 196°
2026-04-14 09:09 18.92549 -15.65687 13017 ft 415 kts 196°
2026-04-14 09:09 18.89749 -15.66402 12400 ft 413 kts 195°
2026-04-14 09:09 18.86971 -15.67111 11799 ft 409 kts 196°
2026-04-14 09:09 18.84231 -15.67810 11276 ft 404 kts 195°
2026-04-14 09:10 18.81745 -15.68442 11037 ft 403 kts 196°
2026-04-14 09:10 18.79017 -15.69140 10980 ft 403 kts 195°
2026-04-14 09:10 18.76309 -15.69831 10980 ft 401 kts 195°
2026-04-14 09:10 18.73588 -15.70523 10981 ft 401 kts 196°
2026-04-14 09:11 18.70916 -15.71203 10979 ft 401 kts 195°
2026-04-14 09:11 18.68200 -15.71897 10974 ft 401 kts 195°
2026-04-14 09:11 18.65496 -15.72586 10830 ft 401 kts 195°
2026-04-14 09:11 18.62791 -15.73273 10410 ft 399 kts 196°
2026-04-14 09:12 18.60084 -15.73966 9957 ft 398 kts 195°
2026-04-14 09:12 18.57413 -15.74648 9466 ft 394 kts 195°
2026-04-14 09:12 18.54751 -15.75326 8959 ft 391 kts 195°
2026-04-14 09:12 18.52118 -15.75995 8465 ft 389 kts 194°
2026-04-14 09:13 18.49457 -15.76671 7977 ft 386 kts 194°
2026-04-14 09:13 18.46891 -15.77323 7510 ft 383 kts 194°
2026-04-14 09:13 18.44307 -15.77978 7036 ft 380 kts 194°
2026-04-14 09:13 18.41754 -15.78624 6563 ft 378 kts 193°
2026-04-14 09:14 18.39205 -15.79270 6098 ft 375 kts 193°
2026-04-14 09:14 18.36694 -15.79905 5595 ft 365 kts 193°
2026-04-14 09:14 18.34268 -15.80520 5115 ft 352 kts 193°
2026-04-14 09:14 18.31917 -15.81113 4628 ft 341 kts 193°
2026-04-14 09:15 18.29646 -15.81689 4132 ft 332 kts 193°
2026-04-14 09:15 18.27427 -15.82253 3639 ft 323 kts 192°
2026-04-14 09:15 18.25271 -15.82799 3185 ft 315 kts 192°
2026-04-14 09:15 18.23190 -15.83328 2981 ft 299 kts 191°
2026-04-14 09:16 18.21239 -15.83821 2955 ft 278 kts 191°
2026-04-14 09:16 18.19434 -15.84323 2956 ft 260 kts 197°
2026-04-14 09:16 18.17921 -15.85286 2795 ft 253 kts 226°
2026-04-14 09:16 18.17146 -15.86868 2496 ft 241 kts 265°
2026-04-14 09:17 18.17400 -15.88513 2221 ft 221 kts 304°
2026-04-14 09:17 18.18421 -15.89574 2017 ft 198 kts 335°
2026-04-14 09:17 18.19627 -15.90116 1949 ft 179 kts 342°
2026-04-14 09:17 18.20695 -15.90616 1877 ft 159 kts 338°
2026-04-14 09:18 18.21614 -15.91178 1670 ft 147 kts 332°
2026-04-14 09:18 18.22452 -15.91733 1476 ft 139 kts 337°
2026-04-14 09:18 18.23292 -15.92233 1310 ft 138 kts 337°
2026-04-14 09:18 18.24116 -15.92737 1127 ft 136 kts 334°
2026-04-14 09:19 18.24935 -15.93244 963 ft 137 kts 335°
2026-04-14 09:19 18.25764 -15.93751 780 ft 140 kts 334°
2026-04-14 09:19 18.26615 -15.94274 606 ft 143 kts 334°
2026-04-14 09:19 18.27462 -15.94796 407 ft 139 kts 335°
2026-04-14 09:20 18.28297 -15.95308 239 ft 140 kts 336°
2026-04-14 09:20 18.29128 -15.95839 58 ft 139 kts 334°
2026-04-14 09:20 18.29924 -15.96332 23 ft 126 kts 339°
2026-04-14 09:20 18.30556 -15.96699 14 ft 71 kts 329°
2026-04-14 09:21 18.30845 -15.96878 15 ft 41 kts 330°
2026-04-14 09:21 18.30997 -15.96944 16 ft 7 kts 25°
2026-04-14 09:21 18.31023 -15.96910 15 ft 7 kts 56°
2026-04-14 09:21 18.31040 -15.96877 15 ft 0 kts 66°
2026-04-14 09:23 18.31040 -15.96875 15 ft 1 kts 66°
2026-04-14 09:23 18.31052 -15.96837 14 ft 11 kts 78°
2026-04-14 09:23 18.31073 -15.96745 14 ft 8 kts 58°
2026-04-14 09:23 18.31077 -15.96739 14 ft 0 kts 58°